Wind_Speed
14 15 15 17 18 18 19 19 18 17 19 21 22 24 28 17 17 20 20 22 23 27 30 29 30 28 30 19 16 14 11 15 17 27 25 14 13 13 11 20 30 48 52 55
12 16 15 16 16 17 18 20 17 15 15 17 20 19 21 25 17 19 20 25 27 23 22 27 30 35 40 33 27 27 26 24 20 18 16 25 31 33 28 22 15 24 34 39
14 14 14 14 15 17 17 15 15 13 17 17 14 15 15 17 20 16 16 17 19 17 20 21 20 23 33 39 40 31 35 36 33 33 24 24 18 20 31 32 26 14 14 25
13 13 13 14 13 15 13 12 12 10 11 15 15 11 10 14 14 10 12 12 13 13 15 17 25 20 28 33 35 33 33 36 41 40 35 28 27 19 13 16 14 17 18 14
14 14 15 12 11 11 9 9 11 9 8 8 11 12 11 6 10 15 21 28 31 33 33 35 33 36 38 44 44 43 41 39 41 42 48 40 35 42 41 35 32 22 22 19
15 15 14 11 8 8 4 2 5 5 6 4 7 11 16 26 28 29 29 28 26 27 28 30 29 31 35 37 36 34 33 36 38 40 42 40 40 40 38 35 31 30 27 23
21 18 16 13 10 9 6 6 9 10 13 11 16 23 23 25 27 25 25 24 24 23 25 25 24 24 28 28 29 27 28 29 30 29 30 29 27 26 23 21 18 15 13 9
24 23 22 17 14 13 17 21 22 23 23 22 22 22 23 23 22 20 18 19 19 20 21 20 20 20 21 21 21 20 20 21 21 21 21 20 19 17 15 13 11 9 6 4
23 23 23 22 19 17 16 18 18 19 20 21 20 19 18 18 17 15 14 14 14 14 13 13 14 15 16 16 16 15 15 16 16 17 17 17 15 14 13 13 12 13 14 15
17 18 18 18 17 18 17 17 17 17 16 15 12 11 10 9 9 10 10 10 9 9 9 10 11 11 11 11 11 11 10 10 10 11 12 13 14 14 15 16 16 18 21 23
8 9 9 9 9 9 10 9 9 8 7 5 5 4 3 3 3 5 6 7 8 9 9 10 10 11 11 11 11 11 12 12 13 13 14 15 16 18 20 21 23 24 26 29
1 1 0 0 1 0 1 2 2 3 4 3 4 5 6 8 8 10 11 12 12 13 12 11 11 12 13 13 14 15 16 16 17 18 19 21 22 24 25 27 28 30 32 35
10 9 9 8 7 8 8 8 8 9 9 9 10 10 11 11 12 13 15 15 16 17 18 18 17 16 16 17 18 18 19 20 22 22 24 27 30 31 31 32 34 36 39 41
16 16 18 16 16 16 15 15 17 17 17 16 16 16 16 17 17 18 19 19 20 21 23 24 25 26 26 26 26 26 25 26 27 28 30 32 35 37 38 39 40 41 42 44
17 20 22 22 23 23 23 23 23 24 25 25 25 26 26 26 26 27 28 28 29 29 30 31 32 33 34 34 34 34 34 34 34 36 37 38 39 42 43 44 45 47 48 49
18 17 18 21 23 24 26 27 29 31 31 31 30 31 33 32 33 34 35 36 37 38 39 39 39 39 39 40 40 40 39 39 39 38 37 38 44 48 50 52 53 53 52 53
26 24 22 23 23 21 23 25 27 29 30 32 36 38 38 37 37 39 41 40 41 43 44 43 43 43 43 44 43 44 44 44 45 45 45 46 49 50 52 54 54 56 55 56
27 27 28 28 29 28 27 27 27 28 30 31 32 34 35 38 40 42 44 44 44 46 47 47 47 47 48 47 47 47 47 47 47 48 49 50 51 53 56 56 58 58 57 58
27 27 29 30 32 33 33 32 33 34 35 35 35 35 37 38 40 43 45 45 45 46 48 49 50 49 49 50 50 51 51 51 51 51 52 55 57 58 58 58 59 58 57 58
34 32 31 31 34 36 37 36 36 36 38 39 40 41 41 42 44 47 49 49 51 52 55 56 56 53 55 56 56 56 56 57 57 57 59 61 61 60 59 59 59 59 58 58
24 22 26 26 26 26 30 34 37 38 39 41 43 45 46 47 49 51 52 53 55 59 61 61 61 62 63 63 63 63 63 64 65 66 64 61 58 57 57 58 58 59 59 58
26 30 30 32 32 31 31 32 33 34 36 38 41 43 46 49 52 55 57 58 62 65 65 66 67 67 68 69 69 70 69 68 66 60 58 60 61 60 56 55 56 57 58 58
37 39 39 39 38 38 39 41 43 44 46 49 52 55 57 59 61 63 64 67 69 70 72 71 71 71 72 72 73 73 72 68 62 63 65 63 62 59 56 57 56 54 54 55
40 41 42 42 41 42 44 49 53 56 59 62 65 68 70 72 74 75 76 76 77 79 78 78 77 75 73 73 74 75 73 69 67 66 65 62 62 59 56 54 52 51 51 52
45 44 45 47 49 52 57 60 62 65 65 66 68 71 73 75 77 80 82 84 85 85 84 81 80 80 79 78 74 74 73 72 64 67 67 65 61 59 55 51 48 47 49 51
46 48 50 54 59 62 61 58 60 65 68 70 73 74 74 75 73 72 72 75 79 83 86 82 77 72 66 67 68 71 69 65 66 64 64 62 58 54 49 47 46 47 48 48
54 55 56 57 58 58 60 63 64 68 71 74 73 70 70 68 68 71 73 74 71 66 63 60 61 69 64 53 47 53 61 62 62 59 60 57 52 48 44 42 44 46 46 44
Wind_Direction
66 55 54 48 49 50 68 79 82 74 76 81 61 75 78 108 89 80 85 68 67 67 72 64 65 52 44 58 54 113 89 54 55 84 96 124 165 174 193 206 214 212 213 219
52 49 55 49 53 51 74 84 84 86 84 75 68 68 71 76 90 84 73 73 55 53 61 58 63 59 61 63 74 74 69 50 53 43 54 72 114 103 100 106 151 189 203 211
46 47 55 60 64 64 83 82 83 84 74 70 71 70 81 94 84 84 59 54 40 38 40 36 47 64 66 63 64 73 65 61 54 72 70 70 95 75 78 96 89 108 179 204
54 66 67 62 62 75 93 83 77 69 78 54 57 81 85 63 65 40 40 49 38 43 58 55 52 71 75 62 62 70 69 63 63 65 73 82 94 91 78 101 116 143 171 198
71 81 80 76 86 86 91 80 60 57 63 58 49 55 39 24 28 58 72 74 73 73 76 75 76 75 76 73 69 67 70 70 78 68 70 69 74 78 83 86 91 116 104 101
74 78 77 76 104 118 94 89 39 14 316 352 48 69 83 90 86 78 76 76 72 71 70 73 71 66 65 67 70 73 75 77 78 79 79 82 84 82 80 78 75 76 73 71
76 84 83 73 87 108 61 36 46 79 83 93 106 105 99 90 85 82 80 76 75 69 67 66 67 67 67 66 63 62 65 70 73 74 76 79 81 84 86 88 91 92 88 81
77 80 77 77 87 97 98 96 94 94 97 101 103 103 98 91 89 86 81 78 73 71 71 67 64 60 58 57 61 61 64 69 71 73 75 74 72 71 68 65 61 56 44 16
86 86 88 94 98 100 98 99 101 99 95 92 92 90 88 84 81 78 73 69 66 62 59 54 46 43 43 44 45 46 44 40 39 38 35 35 34 29 22 15 5 348 336 326
85 87 90 92 94 97 100 99 94 89 84 80 72 68 69 70 61 51 42 35 32 27 24 23 20 17 15 19 18 21 21 18 15 10 3 356 350 343 335 329 324 322 319 316
84 87 87 89 93 95 92 96 97 93 88 81 77 61 42 16 3 356 355 349 347 343 340 341 345 349 349 352 354 352 347 343 342 340 337 333 326 321 316 309 306 304 303 304
266 252 278 191 181 150 246 248 261 282 292 294 290 298 306 306 307 309 310 312 314 314 312 311 315 318 319 320 318 321 322 322 321 321 320 318 316 312 309 308 306 305 304 301
268 275 275 268 258 251 247 249 261 272 276 279 280 279 280 282 285 291 297 298 298 297 301 299 298 296 294 297 302 305 307 309 311 312 314 314 313 310 309 308 307 305 303 301
267 265 264 263 267 266 267 271 271 268 266 265 266 269 272 275 278 284 290 291 293 294 294 293 292 292 291 291 292 294 296 298 300 303 304 307 310 308 305 302 302 304 305 305
278 272 269 268 267 270 271 273 273 273 274 273 271 270 269 271 275 279 282 283 284 286 287 288 289 290 291 293 294 294 294 295 296 297 298 300 305 308 305 304 302 301 302 304
280 285 283 277 274 272 272 271 271 272 273 275 276 273 271 272 273 274 275 276 280 283 284 285 286 288 290 291 290 290 291 292 294 296 297 301 303 305 307 303 300 301 301 301
284 287 285 282 283 283 281 278 273 274 273 270 268 270 275 276 277 276 276 280 281 282 284 286 286 286 286 287 289 290 292 294 295 296 296 297 298 300 303 304 303 299 298 298
277 279 281 282 284 283 281 278 277 278 279 281 280 279 277 275 275 277 279 279 280 282 284 284 285 285 286 286 287 288 289 289 290 293 295 296 296 297 301 303 303 301 297 297
272 276 278 279 279 280 282 281 281 281 280 282 283 282 282 282 280 280 281 282 282 282 282 283 282 283 285 284 284 285 286 288 290 292 293 293 296 297 299 299 298 298 296 298
271 273 274 273 275 275 275 276 278 279 280 281 282 283 282 281 281 283 286 288 288 286 285 285 285 284 283 284 285 286 288 289 290 291 291 293 295 296 298 298 297 296 296 298
266 262 267 271 276 277 276 276 273 273 275 279 281 282 282 280 280 280 281 282 282 283 285 287 287 287 288 286 286 287 288 288 288 291 297 302 300 301 299 297 296 296 296 297
263 269 267 262 263 267 272 276 277 277 278 279 282 283 284 282 281 281 281 280 277 278 278 279 281 283 284 285 287 289 292 293 296 299 298 297 299 301 296 295 296 296 297 298
260 263 265 266 268 269 271 275 282 285 285 284 285 284 284 282 281 279 278 276 276 276 276 277 277 277 278 281 282 283 286 290 290 291 299 299 300 301 298 297 297 296 297 300
269 271 272 270 271 275 280 283 285 286 286 287 287 287 287 286 285 282 280 278 276 276 275 275 275 274 274 274 277 279 281 282 284 288 294 296 301 301 298 296 295 296 299 301
277 279 277 275 278 281 282 283 285 287 288 288 287 285 284 283 282 281 280 279 276 275 274 274 275 275 275 274 274 277 280 282 281 287 294 295 298 298 296 294 293 295 298 300
282 281 282 284 286 287 289 291 291 293 293 294 294 293 293 292 290 288 286 282 279 276 274 271 268 270 274 278 279 278 278 279 284 290 291 292 294 294 291 290 292 295 297 300
281 285 286 286 288 289 292 294 296 297 297 296 298 298 299 301 300 299 295 290 287 282 275 278 272 263 267 273 275 278 277 278 280 283 287 290 292 288 285 287 291 294 298 302
Height
5660 5659 5656 5653 5651 5648 5647 5647 5647 5647 5646 5645 5645 5643 5640 5638 5636 5634 5632 5630 5627 5624 5619 5614 5610 5605 5597 5588 5583 5580 5580 5576 5568 5559 5555 5553 5556 5560 5565 5571 5580 5595 5612 5629
5662 5660 5658 5655 5653 5652 5650 5650 5651 5650 5650 5650 5649 5648 5647 5645 5642 5641 5637 5634 5631 5628 5624 5620 5615 5610 5602 5594 5589 5587 5584 5578 5572 5568 5562 5561 5560 5562 5569 5578 5589 5601 5615 5629
5663 5661 5659 5659 5657 5656 5655 5655 5655 5655 5655 5655 5654 5653 5652 5651 5648 5646 5642 5639 5637 5633 5629 5624 5621 5616 5611 5602 5598 5595 5590 5585 5580 5577 5573 5570 5572 5576 5580 5591 5601 5613 5623 5633
5665 5663 5663 5661 5659 5660 5660 5659 5658 5658 5659 5659 5657 5657 5656 5655 5653 5650 5647 5643 5640 5637 5632 5630 5626 5621 5617 5612 5608 5605 5600 5596 5593 5587 5584 5583 5584 5589 5596 5606 5612 5623 5629 5636
5666 5666 5666 5665 5664 5663 5662 5664 5662 5662 5662 5663 5662 5661 5660 5657 5654 5652 5650 5647 5646 5643 5639 5635 5634 5632 5626 5621 5617 5613 5611 5607 5602 5599 5595 5596 5598 5604 5610 5615 5619 5624 5628 5634
5668 5668 5668 5669 5668 5667 5666 5666 5668 5667 5666 5665 5665 5665 5662 5661 5659 5657 5656 5654 5653 5651 5647 5644 5642 5640 5635 5631 5629 5629 5626 5622 5619 5617 5617 5619 5621 5623 5625 5628 5631 5634 5639 5641
5672 5671 5672 5671 5670 5671 5671 5672 5668 5666 5665 5665 5666 5667 5667 5665 5663 5663 5662 5660 5658 5657 5654 5651 5649 5647 5642 5641 5638 5639 5636 5634 5631 5630 5629 5629 5630 5632 5634 5636 5638 5640 5642 5644
5678 5676 5676 5675 5675 5676 5676 5674 5674 5673 5672 5672 5671 5671 5670 5669 5668 5667 5666 5665 5663 5661 5658 5658 5655 5653 5650 5648 5645 5645 5644 5642 5640 5639 5638 5638 5638 5638 5640 5641 5641 5642 5643 5644
5685 5684 5682 5682 5682 5682 5680 5680 5681 5680 5679 5679 5678 5677 5676 5674 5673 5672 5670 5668 5666 5664 5663 5661 5659 5657 5655 5653 5651 5650 5648 5647 5645 5643 5642 5641 5641 5641 5640 5640 5640 5640 5639 5639
5690 5690 5688 5687 5686 5685 5685 5685 5684 5683 5683 5682 5682 5681 5680 5678 5677 5675 5673 5671 5670 5668 5666 5665 5663 5660 5658 5656 5654 5652 5651 5649 5648 5646 5645 5643 5642 5641 5640 5639 5638 5636 5634 5632
5694 5693 5692 5691 5690 5689 5688 5687 5686 5686 5685 5685 5684 5682 5681 5680 5678 5677 5675 5673 5671 5669 5667 5665 5662 5661 5659 5657 5655 5652 5651 5648 5647 5645 5643 5642 5641 5639 5638 5636 5634 5632 5629 5627
5694 5693 5692 5691 5691 5690 5689 5688 5687 5686 5685 5684 5683 5682 5681 5680 5678 5676 5674 5672 5671 5669 5666 5664 5662 5660 5658 5655 5653 5651 5649 5646 5644 5642 5640 5638 5636 5634 5632 5630 5627 5624 5621 5618
5693 5692 5691 5690 5689 5688 5687 5686 5686 5685 5683 5682 5681 5679 5678 5676 5675 5673 5672 5670 5668 5666 5664 5662 5659 5657 5654 5652 5650 5647 5645 5643 5640 5638 5635 5633 5630 5627 5624 5621 5618 5616 5612 5608
5689 5688 5687 5686 5686 5685 5684 5683 5682 5681 5679 5678 5677 5676 5674 5673 5671 5669 5667 5666 5663 5661 5660 5657 5655 5652 5649 5647 5644 5641 5639 5636 5633 5630 5628 5625 5622 5619 5616 5612 5608 5604 5599 5594
5683 5682 5681 5681 5680 5679 5679 5678 5676 5675 5674 5672 5671 5670 5668 5667 5665 5663 5661 5660 5657 5655 5653 5651 5648 5644 5641 5638 5635 5632 5630 5627 5624 5621 5618 5615 5612 5608 5604 5599 5595 5590 5585 5580
5675 5675 5674 5674 5673 5673 5671 5670 5669 5667 5666 5664 5664 5661 5660 5659 5657 5655 5653 5651 5649 5646 5644 5641 5638 5635 5632 5629 5626 5623 5620 5617 5614 5610 5607 5603 5600 5595 5591 5586 5581 5575 5569 5563
5667 5667 5667 5664 5663 5663 5662 5661 5660 5658 5657 5655 5653 5651 5650 5649 5648 5644 5642 5641 5638 5635 5632 5630 5627 5624 5621 5619 5616 5613 5609 5606 5602 5598 5594 5590 5585 5581 5576 5571 5564 5559 5553 5547
5659 5658 5656 5655 5654 5653 5652 5650 5649 5647 5646 5645 5644 5643 5641 5638 5636 5633 5631 5629 5627 5623 5620 5617 5615 5612 5609 5606 5603 5599 5596 5592 5588 5584 5579 5573 5569 5564 5560 5554 5548 5542 5536 5530
5648 5647 5646 5644 5642 5641 5641 5640 5638 5636 5634 5632 5631 5630 5628 5627 5624 5621 5618 5616 5613 5610 5606 5603 5600 5598 5594 5591 5587 5583 5579 5575 5571 5567 5561 5556 5552 5547 5543 5537 5531 5525 5518 5512
5639 5637 5634 5632 5630 5628 5626 5625 5623 5622 5620 5618 5616 5615 5613 5611 5608 5605 5602 5600 5598 5594 5589 5586 5584 5581 5577 5573 5569 5565 5561 5557 5553 5549 5544 5540 5536 5531 5526 5520 5514 5508 5501 5495
5628 5627 5626 5624 5621 5619 5616 5614 5612 5609 5607 5604 5602 5600 5597 5594 5591 5588 5585 5582 5581 5575 5571 5569 5566 5562 5559 5555 5551 5547 5543 5538 5534 5530 5527 5524 5519 5514 5509 5503 5497 5491 5486 5479
5619 5617 5614 5612 5610 5608 5606 5604 5601 5598 5595 5592 5589 5585 5582 5579 5574 5569 5565 5562 5559 5553 5549 5547 5543 5541 5538 5534 5531 5528 5525 5522 5519 5515 5510 5506 5502 5497 5491 5486 5480 5475 5470 5464
5606 5605 5605 5603 5600 5598 5595 5591 5589 5586 5583 5578 5574 5570 5565 5560 5555 5550 5547 5541 5536 5531 5527 5524 5521 5517 5515 5513 5510 5507 5505 5504 5502 5498 5495 5490 5485 5480 5474 5468 5463 5457 5452 5447
5597 5595 5593 5592 5590 5587 5584 5580 5576 5572 5568 5564 5558 5551 5545 5540 5535 5528 5523 5518 5512 5508 5504 5500 5497 5494 5491 5489 5488 5486 5485 5485 5483 5480 5477 5472 5467 5462 5456 5450 5446 5442 5436 5431
5583 5582 5579 5576 5574 5571 5567 5562 5558 5552 5547 5542 5536 5528 5521 5515 5511 5504 5497 5491 5486 5481 5479 5475 5473 5471 5470 5467 5465 5465 5466 5466 5463 5460 5457 5453 5449 5445 5440 5435 5431 5427 5422 5417
5570 5567 5565 5561 5557 5552 5548 5542 5537 5530 5524 5519 5511 5502 5494 5487 5480 5475 5469 5462 5456 5452 5448 5446 5447 5445 5444 5443 5444 5444 5445 5444 5442 5440 5438 5435 5432 5428 5423 5420 5417 5413 5407 5402
5554 5551 5547 5543 5538 5535 5529 5524 5518 5511 5502 5496 5490 5479 5471 5462 5454 5446 5438 5431 5426 5423 5420 5417 5416 5418 5420 5421 5422 5422 5422 5422 5421 5421 5419 5418 5415 5413 5409 5406 5403 5399 5394 5389